Aurora, CO

9:37 AM MDT on May 22, 2017 (GMT -0600)
Buckley Air Force Base

Weather History for KBKF - July, 2013

Change the Weather History Date:

Tuesday, July 23, 2013

  Actual Average Record
Temperature  
Mean Temperature 78 °F -  
Max Temperature 89 °F 84 °F 98 °F (2005)
Min Temperature 66 °F 59 °F 53 °F (2004)
Cooling Degree Days 12    
Growing Degree Days 28 (Base 50)    
Moisture  
Dew Point 43 °F    
Average Humidity 31    
Maximum Humidity 56    
Minimum Humidity 17    
Precipitation  
Precipitation 0.00 in - - ()
Sea Level Pressure  
Sea Level Pressure 29.87 in    
Wind  
Wind Speed 11 mph (East)    
Max Wind Speed 15 mph    
Max Gust Speed 20 mph    
Averages and records for this station are not official NWS values.
T = Trace of Precipitation, MM = Missing Value Source: NWS Daily Summary

Daily Weather History Graph

Daily Weather History Graph

Search for Another Location

Airport or City:

Trip Planner

Search our weather history database for the weather conditions in past years. The results will help you decide how hot, cold, wet, or windy it might be!

Date:

Astronomy

Jul. 23, 2013 Rise Set
Actual Time 5:50 AM MDT 8:20 PM MDT
Civil Twilight 5:19 AM MDT 8:50 PM MDT
Nautical Twilight 4:41 AM MDT 9:29 PM MDT
Astronomical Twilight 3:58 AM MDT 10:11 PM MDT
Moon 8:50 PM MDT (7/23) 7:01 AM MDT (7/23)
Length of Visible Light 15h 31m
Length of Day
14h 29m
Full, 99% of the Moon is Illuminated
Jul 23
Full
Jul 29
Last Quarter
Aug 6
New
Aug 14
First Quarter
Aug 20
Full

Hourly Weather History & Observations

Time (MDT) Temp. Dew Point Humidity Pressure Visibility Wind Dir Wind Speed Gust Speed Precip Events Conditions
12:55 AM 73.4 °F 37.4 °F 27% 29.76 in 25.0 mi SSW 15.0 mph - N/A   Partly Cloudy
1:55 AM 69.8 °F 37.4 °F 31% 29.78 in 25.0 mi South 13.8 mph - N/A   Partly Cloudy
2:55 AM 69.8 °F 37.4 °F 31% 29.76 in 25.0 mi SSW 10.4 mph - N/A   Partly Cloudy
3:55 AM 68.0 °F 39.2 °F 35% 29.78 in 25.0 mi SSW 9.2 mph - N/A   Scattered Clouds
4:55 AM 66.2 °F 39.2 °F 37% 29.79 in 25.0 mi SSW 8.1 mph - N/A   Mostly Cloudy
5:55 AM 66.2 °F 39.2 °F 37% 29.83 in 70.0 mi South 6.9 mph - N/A   Mostly Cloudy
6:55 AM 68.0 °F 39.2 °F 35% 29.84 in 70.0 mi South 8.1 mph - N/A   Mostly Cloudy
7:55 AM 69.8 °F 41.0 °F 35% 29.86 in 70.0 mi SW 9.2 mph - N/A   Mostly Cloudy
8:55 AM 78.8 °F 35.6 °F 21% 29.88 in 70.0 mi West 8.1 mph - N/A   Mostly Cloudy
9:55 AM 82.4 °F 33.8 °F 17% 29.90 in 70.0 mi North 10.4 mph - N/A   Mostly Cloudy
10:55 AM 84.2 °F 35.6 °F 18% 29.91 in 70.0 mi NE 11.5 mph - N/A   Scattered Clouds
11:55 AM 84.2 °F 44.6 °F 25% 29.91 in 70.0 mi NNE 13.8 mph 19.6 mph N/A   Scattered Clouds
12:55 PM 86.0 °F 46.4 °F 25% 29.89 in 70.0 mi NE 13.8 mph 18.4 mph N/A   Scattered Clouds
1:55 PM 87.8 °F 48.2 °F 25% 29.90 in 70.0 mi NE 10.4 mph - N/A   Scattered Clouds
2:55 PM 89.6 °F 46.4 °F 22% 29.88 in 70.0 mi ENE 11.5 mph - N/A   Scattered Clouds
3:55 PM 89.6 °F 42.8 °F 20% 29.87 in 70.0 mi ENE 9.2 mph - N/A   Scattered Clouds
4:55 PM 89.6 °F 39.2 °F 17% 29.86 in 25.0 mi East 6.9 mph - N/A   Mostly Cloudy
5:55 PM 87.8 °F 39.2 °F 18% 29.87 in 25.0 mi NE 6.9 mph - N/A   Mostly Cloudy
6:55 PM 86.0 °F 41.0 °F 20% 29.88 in 25.0 mi ENE 11.5 mph - N/A   Mostly Cloudy
7:55 PM 78.8 °F 53.6 °F 42% 29.91 in 25.0 mi ENE 12.7 mph - N/A   Mostly Cloudy
8:55 PM 75.2 °F 53.6 °F 47% 29.91 in 25.0 mi NE 11.5 mph - N/A   Mostly Cloudy
9:55 PM 71.6 °F 53.6 °F 53% 29.95 in 25.0 mi East 4.6 mph - N/A   Mostly Cloudy
10:55 PM 68.0 °F 51.8 °F 56% 29.97 in 25.0 mi East 9.2 mph - N/A   Mostly Cloudy
11:55 PM 69.8 °F 51.8 °F 53% 29.98 in 25.0 mi SE 6.9 mph - N/A   Mostly Cloudy